Location: Unspecified
(0.0000°N, 0.0000°E)
Time: 01:21:48
(UTC+00:00)

Explorer 7 - Pass Details

Date: 25 November 2019
Orbit: 485 x 680 km, 50.3° (Epoch: 11 December)

Event Time Altitude Azimuth Distance (km) Brightness Sun altitude
Rises 18:25:20 0° 217° (SW) 2,966 11.7 -9.0°
Reaches altitude 10° 18:27:38 10° 217° (SW) 2,074 10.7 -9.5°
Maximum altitude 18:32:28 89° 302° (WNW) 676 7.2 -10.6°
Enters shadow 18:37:11 11° 36° (NE) 2,031 9.2 -11.7°
